| time (UTC) | temp F | wind direction | speed knots | gust knots | rain 1hr in | rain 24hr in | rain mn in | humidity % | barometer mb |
| 20260504185613 | 42 | 141 | 3.5 | 7.8 | 0.00 | 0.00 | 0.00 | 79 | 904.1 |
| 20260504184613 | 42 | 131 | 3.5 | 7.0 | 0.00 | 0.00 | 0.00 | 80 | 904.0 |
| 20260504183612 | 42 | 155 | 3.5 | 4.3 | 0.00 | 0.00 | 0.00 | 80 | 903.8 |
| 20260504182612 | 42 | 110 | 5.2 | 12.2 | 0.00 | 0.00 | 0.00 | 78 | 903.6 |
| 20260504181611 | 43 | 124 | 6.1 | 11.3 | 0.00 | 0.00 | 0.00 | 78 | 903.6 |
| 20260504180611 | 44 | 108 | 6.1 | 12.2 | 0.00 | 0.00 | 0.00 | 81 | 903.2 |
| 20260504175610 | 44 | 114 | 5.2 | 15.6 | 0.00 | 0.00 | 0.00 | 82 | 903.1 |
| 20260504174610 | 45 | 127 | 4.3 | 7.8 | 0.00 | 0.00 | 0.00 | 81 | 903.0 |
| 20260504173610 | 45 | 149 | 4.3 | 7.0 | 0.00 | 0.00 | 0.00 | 81 | 902.9 |
| 20260504172610 | 45 | 138 | 4.3 | 7.0 | 0.00 | 0.00 | 0.00 | 82 | 902.7 |
| 20260504171608 | 45 | 162 | 4.3 | 6.1 | 0.00 | 0.00 | 0.00 | 81 | 902.5 |
| 20260504170608 | 45 | 173 | 3.5 | 6.1 | 0.00 | 0.00 | 0.00 | 80 | 902.6 |
| 20260504150602 | 48 | 101 | 2.6 | 8.7 | 0.00 | 0.00 | 0.00 | 56 | 901.4 |
| 20260504140600 | 49 | 349 | 2.6 | 4.3 | 0.00 | 0.00 | 0.79 | 37 | 900.5 |
| 20260504130556 | 49 | 271 | 10.4 | 17.4 | 0.00 | 0.00 | 0.79 | 32 | 898.8 |
| 20260504110550 | 49 | 269 | 13.9 | 33.9 | 0.00 | 0.00 | 0.79 | 45 | 895.9 |
| 20260504100548 | 50 | 262 | 22.6 | 40.8 | 0.00 | 0.00 | 0.79 | 46 | 893.3 |
| 20260504081542 | 52 | 235 | 20.9 | 43.4 | 0.00 | 0.00 | 0.79 | 58 | 893.1 |
| 20260504080543 | 52 | 250 | 21.7 | 46.1 | 0.00 | 0.00 | 0.79 | 58 | 892.9 |
| 20260504050533 | 58 | 217 | 19.1 | 41.7 | 0.00 | 0.00 | 0.79 | 67 | 892.4 |
| 20260504045532 | 58 | 273 | 21.7 | 50.4 | 0.00 | 0.00 | 0.79 | 63 | 892.4 |
| 20260504044532 | 58 | 229 | 24.3 | 56.5 | 0.00 | 0.00 | 0.79 | 63 | 892.5 |
| 20260504043532 | 58 | 263 | 26.1 | 54.7 | 0.00 | 0.00 | 0.79 | 67 | 891.8 |
| 20260504042531 | 58 | 219 | 25.2 | 48.7 | 0.00 | 0.00 | 0.79 | 65 | 892.4 |
| 20260504041530 | 58 | 239 | 24.3 | 54.7 | 0.00 | 0.00 | 0.79 | 68 | 892.6 |
| 20260504040530 | 58 | 252 | 26.1 | 49.5 | 0.00 | 0.00 | 0.79 | 67 | 892.4 |
| 20260504035530 | 58 | 240 | 23.5 | 52.1 | 0.00 | 0.00 | 0.79 | 64 | 892.2 |
| 20260504034529 | 58 | 232 | 23.5 | 49.5 | 0.00 | 0.00 | 0.79 | 68 | 892.7 |
| 20260504033529 | 59 | 228 | 21.7 | 41.7 | 0.00 | 0.00 | 0.79 | 70 | 893.1 |
| 20260504032529 | 58 | 228 | 21.7 | 44.3 | 0.00 | 0.00 | 0.79 | 69 | 892.9 |
| 20260504031528 | 59 | 212 | 20.9 | 40.8 | 0.00 | 0.00 | 0.79 | 68 | 893.1 |
| 20260504030527 | 59 | 253 | 21.7 | 49.5 | 0.00 | 0.00 | 0.79 | 70 | 892.7 |
| 20260504025527 | 59 | 280 | 23.5 | 44.3 | 0.00 | 0.00 | 0.79 | 67 | 892.6 |
| 20260504024526 | 58 | 250 | 26.9 | 50.4 | 0.00 | 0.00 | 0.79 | 66 | 892.6 |
| 20260504023526 | 58 | 225 | 26.1 | 56.5 | 0.00 | 0.00 | 0.79 | 66 | 892.9 |
| 20260504022526 | 58 | 260 | 27.8 | 53.0 | 0.00 | 0.00 | 0.79 | 64 | 892.7 |
| 20260504021525 | 58 | 262 | 27.8 | 52.1 | 0.00 | 0.00 | 0.79 | 67 | 892.7 |
| 20260504020525 | 58 | 225 | 25.2 | 46.9 | 0.00 | 0.00 | 0.79 | 67 | 892.6 |
| 20260504015524 | 58 | 245 | 26.9 | 46.9 | 0.00 | 0.00 | 0.79 | 69 | 892.6 |
| 20260504014524 | 59 | 249 | 28.7 | 56.5 | 0.00 | 0.00 | 0.79 | 68 | 892.7 |
| 20260504013524 | 59 | 253 | 27.8 | 54.7 | 0.00 | 0.00 | 0.79 | 69 | 892.4 |
| 20260504012523 | 59 | 236 | 30.4 | 57.4 | 0.00 | 0.00 | 0.79 | 73 | 892.6 |
| 20260504011523 | 58 | 232 | 30.4 | 61.7 | 0.00 | 0.00 | 0.79 | 72 | 892.3 |
| 20260504010522 | 59 | 248 | 27.8 | 51.3 | 0.00 | 0.00 | 0.79 | 69 | 892.6 |
| 20260504005521 | 59 | 249 | 27.8 | 53.9 | 0.00 | 0.00 | 0.79 | 69 | 892.6 |
| 20260504004521 | 59 | 269 | 29.5 | 49.5 | 0.00 | 0.00 | 0.79 | 73 | 892.6 |
| 20260504003520 | 59 | 256 | 28.7 | 52.1 | 0.00 | 0.00 | 0.79 | 68 | 892.6 |
| 20260504002520 | 59 | 238 | 29.5 | 66.9 | 0.00 | 0.00 | 0.79 | 62 | 892.7 |
| 20260504001519 | 59 | 245 | 30.4 | 63.4 | 0.00 | 0.00 | 0.79 | 50 | 892.1 |
| 20260504000520 | 58 | 210 | 31.3 | 66.9 | 0.00 | 0.00 | 0.79 | 58 | 892.1 |
| 20260503235519 | 58 | 242 | 28.7 | 55.6 | 0.00 | 0.00 | 0.79 | 55 | 892.2 |
| 20260503234518 | 58 | 256 | 29.5 | 66.0 | 0.00 | 0.00 | 0.79 | 57 | 892.5 |
| 20260503233518 | 58 | 238 | 30.4 | 59.1 | 0.00 | 0.00 | 0.79 | 53 | 892.1 |
| 20260503232518 | 58 | 256 | 32.2 | 59.1 | 0.00 | 0.00 | 0.79 | 59 | 892.0 |
| 20260503231517 | 58 | 215 | 30.4 | 57.4 | 0.00 | 0.00 | 0.79 | 61 | 892.7 |
| 20260503230516 | 58 | 243 | 31.3 | 54.7 | 0.00 | 0.00 | 0.79 | 57 | 892.5 |
| 20260503225516 | 58 | 235 | 31.3 | 60.8 | 0.00 | 0.00 | 0.79 | 56 | 892.8 |
| 20260503224515 | 59 | 246 | 32.2 | 58.2 | 0.00 | 0.00 | 0.79 | 50 | 893.1 |
| 20260503223515 | 59 | 269 | 31.3 | 72.1 | 0.00 | 0.00 | 0.79 | 50 | 893.1 |
| 20260503222514 | 59 | 224 | 32.2 | 67.8 | 0.00 | 0.00 | 0.78 | 41 | 892.8 |
| 20260503221515 | 59 | 253 | 31.3 | 58.2 | 0.00 | 0.00 | 0.78 | 38 | 892.8 |
| 20260503220513 | 60 | 243 | 28.7 | 60.8 | 0.00 | 0.00 | 0.78 | 43 | 892.8 |
| 20260503215513 | 60 | 259 | 29.5 | 70.4 | 0.00 | 0.00 | 0.78 | 53 | 892.6 |
| 20260503214513 | 60 | 240 | 26.1 | 51.3 | 0.00 | 0.00 | 0.77 | 61 | 893.3 |
| 20260503213513 | 61 | 270 | 25.2 | 49.5 | 0.00 | 0.00 | 0.76 | 68 | 893.1 |
| 20260503212512 | 62 | 217 | 23.5 | 58.2 | 0.00 | 0.00 | 0.76 | 65 | 893.2 |
| 20260503211511 | 62 | 253 | 21.7 | 56.5 | 0.00 | 0.00 | 0.74 | 62 | 892.9 |
| 20260503210511 | 62 | 276 | 22.6 | 51.3 | 0.00 | 0.00 | 0.72 | 70 | 893.1 |
| 20260503205510 | 62 | 224 | 23.5 | 46.1 | 0.00 | 0.00 | 0.69 | 66 | 893.2 |
| 20260503204511 | 62 | 221 | 22.6 | 53.9 | 0.00 | 0.00 | 0.68 | 65 | 894.0 |
| 20260503203510 | 62 | 239 | 21.7 | 56.5 | 0.00 | 0.00 | 0.64 | 69 | 893.3 |
| 20260503202509 | 62 | 228 | 26.9 | 66.0 | 0.00 | 0.00 | 0.62 | 62 | 892.9 |
| 20260503201509 | 62 | 232 | 21.7 | 57.4 | 0.00 | 0.00 | 0.61 | 67 | 893.4 |
| 20260503200509 | 62 | 225 | 25.2 | 53.0 | 0.00 | 0.00 | 0.58 | 71 | 893.8 |
| 20260503195508 | 62 | 222 | 22.6 | 48.7 | 0.00 | 0.00 | 0.55 | 61 | 893.7 |
| 20260503194507 | 62 | 232 | 23.5 | 59.1 | 0.00 | 0.00 | 0.50 | 65 | 893.7 |
| 20260503193507 | 62 | 259 | 24.3 | 60.0 | 0.00 | 0.00 | 0.47 | 65 | 893.2 |
| 20260503192506 | 61 | 248 | 28.7 | 68.6 | 0.00 | 0.00 | 0.45 | 62 | 892.7 |
| 20260503191506 | 61 | 212 | 26.9 | 58.2 | 0.00 | 0.00 | 0.43 | 55 | 892.7 |
| 20260503190505 | 61 | 246 | 27.8 | 53.9 | 0.00 | 0.00 | 0.42 | 64 | 893.8 |